This is the latest recevied weather packets stored in our database for station/object F4GQK-13. If no packets are shown the sender has not sent any weather packets the latest 10 day(s).
| Time | Temp. | Humidity | Pressure | Rain* | Wind** | Luminosity | Snow |
|---|---|---|---|---|---|---|---|
| 1777456805 | 18.89° C | 54% | 1018.3 hPa | 0 mm | - | 487 W/m² | - |
| 1777456506 | 18.89° C | 55% | 1018.4 hPa | 0 mm | - | 546 W/m² | - |
| 1777456204 | 18.89° C | 56% | 1018.3 hPa | 0 mm | - | 626 W/m² | - |
| 1777455906 | 18.33° C | 56% | 1018.2 hPa | 0 mm | - | 524 W/m² | - |
| 1777455604 | 17.78° C | 57% | 1018.3 hPa | 0 mm | - | 533 W/m² | - |
| 1777455304 | 17.78° C | 56% | 1018.4 hPa | 0 mm | - | 503 W/m² | - |
| 1777455005 | 17.78° C | 57% | 1018.4 hPa | 0 mm | - | 517 W/m² | - |
| 1777454705 | 17.78° C | 56% | 1018.5 hPa | 0 mm | - | 560 W/m² | - |
| 1777454405 | 18.33° C | 57% | 1018.4 hPa | 0 mm | - | 547 W/m² | - |
| 1777454105 | 17.22° C | 60% | 1018.5 hPa | 0 mm | - | 546 W/m² | - |
| 1777453805 | 16.67° C | 59% | 1018.5 hPa | 0 mm | - | 497 W/m² | - |
| 1777453505 | 16.67° C | 59% | 1018.5 hPa | 0 mm | - | 430 W/m² | - |
| 1777453204 | 16.67° C | 59% | 1018.5 hPa | 0 mm | - | 504 W/m² | - |
| 1777452904 | 16.67° C | 61% | 1018.4 hPa | 0 mm | - | 457 W/m² | - |
| 1777452603 | 16.11° C | 60% | 1018.5 hPa | 0 mm | - | 398 W/m² | - |
| 1777452306 | 15.56° C | 60% | 1018.8 hPa | 0 mm | - | 398 W/m² | - |
| 1777452005 | 15.56° C | 60% | 1018.5 hPa | 0 mm | - | 379 W/m² | - |
| 1777451709 | 15.56° C | 60% | 1018.4 hPa | 0 mm | - | 325 W/m² | - |
| 1777451406 | 15.56° C | 61% | 1018.4 hPa | 0 mm | - | 311 W/m² | - |
| 1777451105 | 15° C | 62% | 1018.5 hPa | 0 mm | - | 306 W/m² | - |
| 1777450804 | 15° C | 62% | 1018.4 hPa | 0 mm | - | 287 W/m² | - |
| 1777450503 | 15° C | 62% | 1018.3 hPa | 0 mm | - | 274 W/m² | - |
| 1777450205 | 14.44° C | 62% | 1018.4 hPa | 0 mm | - | 285 W/m² | - |
| 1777449905 | 14.44° C | 65% | 1018.2 hPa | 0 mm | - | 266 W/m² | - |
| 1777449605 | 14.44° C | 63% | 1018.3 hPa | 0 mm | - | 238 W/m² | - |
* Rain latest hour (hover to see other rain measurements)
** Current wind speed in m/s (hover to see current wind gust speed)